User: anonymous   Login
Location: Unspecified
(0.0000°N, 0.0000°E)
Time: 23:24:26
(UTC+00:00)
Language:

PAYLOAD F - Orbit

View from above orbital plane
View from above orbital plane
View from above satellite
View from above satellite

Ground track
Ground track

The orbit data is extracted from the following two-line orbital elements,

1 27060U 01058F   24176.79577031  .00000023  00000-0  67924-4 0  9995
2 27060  82.5409 299.9523 0009233 140.6645 219.5119 12.63035727 36954
Epoch (UTC): 24 June 2024 19:05:54
Eccentricity: 0.0009233
inclination: 82.5409°
perigee height: 1403 km
apogee height: 1417 km
right ascension of ascending node: 299.9523°
argument of perigee: 140.6645°
revolutions per day: 12.63035727
mean anomaly at epoch: 219.5119°
orbit number at epoch: 3695

The dashed part of the orbit path shows where the satellite is in the earth's shadow,  

DLR